weather.gov     
National Weather Service

Terminal Aerodrome Forecast
NWS Homepage
This page is being discontinued on March 12, 2014.
The same data is available at this site. Please update your bookmarks.
Thank you, and we apologize for the inconvenience.
Please send an email to SR-SRH.Webmaster@noaa.gov with any concerns.


Current Version
Previous Version:    01  02  03  04  05  06  07  08  09  10  11  12  13  14  15  16  17  18  19  20  21  22  23  24  25  26  27  28  29  30  
   31  32  33  34  35  36  37  38  39  40  41  42  43  
[Printable]
636
FTUS41 KBUF 201700
TAFROC
TAF
KROC 201736Z 2018/2118 20010KT P6SM OVC070
     FM210100 19006KT P6SM VCSH OVC050
     FM210300 18007KT P6SM -SHRA OVC045
     FM210800 14007KT 6SM -SHRA OVC025
     FM211300 08005KT 4SM -SHRA OVC012
     FM211600 05008KT 4SM -SHRA OVC007=


U.S. Dept. of Commerce
NOAA National Weather Service
1325 East West Highway
Silver Spring, MD 20910
E-mail: w-nws.webmaster@noaa.gov
Page last modified: May 16, 2007
NATIONAL WEATHER SERVICE: for Safety, for Work, for Fun - FOR LIFE